Ashland, WI

11:37 AM CDT on March 28, 2017 (GMT -0500)
Kennedy Memorial

Weather History for KASX - May, 2013

Change the Weather History Date:

Thursday, May 9, 2013

  Actual Average Record
Temperature  
Mean Temperature 41 °F -  
Max Temperature 46 °F 62 °F 85 °F (1985)
Min Temperature 36 °F 36 °F 19 °F (1983)
Degree Days  
Heating Degree Days 24    
Moisture  
Dew Point 35 °F    
Average Humidity 84    
Maximum Humidity 93    
Minimum Humidity 65    
Precipitation  
Precipitation 0.37 in - - ()
Sea Level Pressure  
Sea Level Pressure 30.17 in    
Wind  
Wind Speed 13 mph (NE)    
Max Wind Speed 21 mph    
Max Gust Speed 30 mph    
Visibility 9 miles    
Events Rain    
Averages and records for this station are not official NWS values.
T = Trace of Precipitation, MM = Missing Value Source: NWS Daily Summary

Daily Weather History Graph

Daily Weather History Graph

Search for Another Location

Airport or City:

Trip Planner

Search our weather history database for the weather conditions in past years. The results will help you decide how hot, cold, wet, or windy it might be!

Date:

Astronomy

May. 09, 2013 Rise Set
Actual Time 5:37 AM CDT 8:23 PM CDT
Civil Twilight 5:02 AM CDT 8:58 PM CDT
Nautical Twilight 4:18 AM CDT 9:43 PM CDT
Astronomical Twilight 3:26 AM CDT 10:35 PM CDT
Moon 5:23 AM CDT (5/9) 8:18 PM CDT (5/9)
Length of Visible Light 15h 56m
Length of Day
14h 46m
Waning Crescent, 0% of the Moon is Illuminated
May 9
Waning Crescent
May 9
New
May 17
First Quarter
May 24
Full
May 31
Last Quarter

Hourly Weather History & Observations

Time (CDT) Temp. Windchill Dew Point Humidity Pressure Visibility Wind Dir Wind Speed Gust Speed Precip Events Conditions
1:53 AM 44.1 °F 39.5 °F 41.0 °F 89% 30.05 in 10.0 mi NNE 8.1 mph - 0.01 in   Overcast
2:53 AM 45.0 °F 39.7 °F 41.0 °F 86% 30.06 in 10.0 mi NNE 10.4 mph - N/A   Overcast
3:53 AM 43.0 °F 36.4 °F 39.0 °F 86% 30.06 in 10.0 mi NNE 12.7 mph - N/A   Overcast
4:53 AM 41.0 °F 33.1 °F 37.9 °F 89% 30.08 in 7.0 mi NNE 15.0 mph - 0.01 in Rain Light Rain
5:17 AM 39.2 °F 31.6 °F 37.4 °F 93% 30.08 in 6.0 mi NE 12.7 mph 21.9 mph 0.03 in Rain Light Rain
5:29 AM 39.2 °F 31.6 °F 37.4 °F 93% 30.09 in 8.0 mi NE 12.7 mph - 0.03 in Rain Light Rain
5:53 AM 39.9 °F 32.5 °F 37.0 °F 89% 30.11 in 10.0 mi NE 12.7 mph - 0.04 in Rain Light Rain
6:53 AM 39.9 °F 32.1 °F 37.0 °F 89% 30.13 in 6.0 mi NE 13.8 mph - 0.04 in Rain Light Rain
7:53 AM 39.0 °F 30.6 °F 36.0 °F 89% 30.15 in 10.0 mi NE 15.0 mph 20.7 mph 0.06 in Rain Light Rain
8:53 AM 37.9 °F 30.0 °F 36.0 °F 93% 30.17 in 6.0 mi NE 12.7 mph 20.7 mph 0.09 in Rain Light Rain
9:53 AM 37.9 °F 28.2 °F 36.0 °F 93% 30.19 in 5.0 mi ENE 18.4 mph 24.2 mph 0.07 in Rain Light Rain
10:53 AM 37.9 °F 28.9 °F 35.1 °F 89% 30.21 in 9.0 mi NE 16.1 mph 25.3 mph 0.05 in Rain Light Rain
11:16 AM 37.4 °F 27.5 °F 35.6 °F 93% 30.19 in 10.0 mi NE 18.4 mph 24.2 mph 0.00 in   Overcast
11:40 AM 37.4 °F 27.5 °F 35.6 °F 93% 30.19 in 10.0 mi NE 18.4 mph 25.3 mph 0.00 in   Overcast
11:51 AM 37.4 °F 26.9 °F 35.6 °F 93% 30.19 in 10.0 mi NE 20.7 mph 26.5 mph 0.00 in   Overcast
12:53 PM 39.0 °F 29.9 °F 36.0 °F 89% 30.22 in 10.0 mi ENE 17.3 mph - N/A   Overcast
1:53 PM 39.9 °F 30.2 °F 35.1 °F 83% 30.23 in 10.0 mi NE 20.7 mph 29.9 mph N/A   Overcast
2:23 PM 39.2 °F 29.6 °F 33.8 °F 81% 30.22 in 10.0 mi NE 19.6 mph 25.3 mph N/A   Overcast
2:53 PM 39.0 °F 30.6 °F 34.0 °F 82% 30.25 in 10.0 mi NE 15.0 mph 20.7 mph N/A   Overcast
3:07 PM 39.2 °F 30.8 °F 33.8 °F 81% 30.22 in 10.0 mi NE 15.0 mph - N/A   Overcast
3:53 PM 39.0 °F 29.9 °F 32.0 °F 76% 30.23 in 10.0 mi ENE 17.3 mph 25.3 mph N/A   Overcast
4:53 PM 39.9 °F 31.8 °F 32.0 °F 73% 30.22 in 10.0 mi ENE 15.0 mph 20.7 mph N/A   Overcast
5:53 PM 41.0 °F 33.5 °F 30.0 °F 65% 30.22 in 10.0 mi NE 13.8 mph - N/A   Overcast
6:53 PM 41.0 °F 34.3 °F 30.0 °F 65% 30.21 in 10.0 mi NE 11.5 mph - N/A   Scattered Clouds
7:53 PM 39.0 °F 32.8 °F 32.0 °F 76% 30.22 in 10.0 mi NNE 9.2 mph - N/A   Clear
8:53 PM 37.9 °F 30.9 °F 30.9 °F 76% 30.23 in 10.0 mi NNE 10.4 mph - N/A   Clear
9:53 PM 37.0 °F 30.4 °F 30.9 °F 79% 30.24 in 10.0 mi NNE 9.2 mph - N/A   Clear
10:53 PM 36.0 °F 29.6 °F 28.9 °F 76% 30.24 in 10.0 mi NNE 8.1 mph - N/A   Clear